DMSP 5D-2 F13 DEB

Satellite information

Favourite Embed

Satellite Type and Status

DEBRISIN ORBIT

Key statistics

Satellite DMSP 5D-2 F13 DEB at a glance.

Uptime

11062

Days in orbit

Revolutions

≈ 14.3

Per day

Orbit

SSO

Sun Synchronous Orbit

Inclination

98.7

Latest

Satellite identification and parameters

Extended collection of information and parameters for DMSP 5D-2 F13 DEB.

Object identification

Identified? True

Debris? True

Object name: DMSP 5D-2 F13 DEB

International designator: 1995-015AF

Object number (NORAD): 40418

Object ID (CCSDS): 40418

Country: UNITED STATES OF AMERICA (US)

Current information (Y/N): Y

RCS size: SMALL

Orbital parameters

Period: 100.612 minutes

Inclination: 98.6753 deg

SMA: 7165.728 km

Apoapsis: 791.635 km

Periapsis: 783.551 km

RAAN: 211.5104 deg

Eccentricy: 0.0005641

Argument of periapsis: 270.1782 deg

Mean anomaly: 89.8754 deg

Mean motion: 14.31239486 rev/day

Mean motion (dot): 0.00002065 rev/day2

B* drag term: 0.00079765 1/REarth

Two-line elements (TLE)

Creation date: July 5, 2025, 5:45 p.m.

Reference frame: TEME

Reference center: EARTH

Epoch: July 5, 2025, 12:59 p.m. UTC

TLE line 0: 0 DMSP 5D-2 F13 DEB

TLE line 1: 1 40418U 95015AF 25186.54131634 .00002065 00000-0 79765-3 0 9996

TLE line 2: 2 40418 98.6753 211.5104 0005641 270.1782 89.8754 14.31239486537618

Live tracking on map

Real-time ground track for satellite DMSP 5D-2 F13 DEB.

In-orbit conjunctions

A list of the most updated potential collisions computed for object DMSP 5D-2 F13 DEB.

Target Orbit TCA Probability of collision Miss distance Type
ASUSAT SSO 2025-05-20 22:46:12 0.0001500457 911.0 (m) PAYLOAD
SL-16 DEB LEO 2024-11-15 09:55:15 0.0001543456 301.0 (m) DEBRIS
DELTA 1 DEB SSO 2024-11-09 15:16:34 0.0003237251 498.0 (m) DEBRIS
COSMOS 1777 LEO 2024-10-20 09:53:19 0.0002081248 837.0 (m) PAYLOAD
PEGASUS R/B LEO 2024-10-18 04:25:53 0.0003077679 163.0 (m) ROCKET BODY

Associated space launch

Military meteorological satellite

DMSP 5D-2 F13 DEB was lifted into orbit during the mission ‘Atlas E | DMSP-5D2 F13’, on board a Atlas E space rocket.

The launch took place on March 24, 1995, 2:05 p.m. from Space Launch Complex 3W.

For more information about the launch, click the button.

Launch to space Atlas E | DMSP-5D2 F13
Atlas E | DMSP-5D2 F13

Agency: N/A

Status: Launch Successful

Launch date: March 24, 1995, 2:05 p.m. UTC

Rocket: Atlas E

Launch pad: Space Launch Complex 3W

Location: Vandenberg SFB, CA, USA

...

Latest news about this satellite

There are no fresh news available about this satellite. Check back as we update our databases every day.


Newsletter sign-up

Weekly statistics, charts and insights to help you stay on top of the space industry.